Flag for Austria Weather past 2 weeks in Fürstenfeld, Styria, Austria

Now
62 °F

Fog.


Feels Like: 62 °F
Forecast: 48 / 68 °F
Wind: 2 mph from Northeast

Location: Murska Sobota

Current Time: Sep 16, 2014 at 9:35:37 PM

Latest Report: Sep 16, 2014 at 8:00 PM


Visibility: 4 mi

Pressure: 30.09 "Hg

Humidity: 96%

Dew point: 61 °F

Location of FürstenfeldLocation

Historic Weather in Fürstenfeld — Graph

°F

Fürstenfeld temperature yesterday

Maximum temperature yesterday: 68 °F (at 3:00 PM)
Minimum temperature yesterday: 55 °F (at 3:00 AM)
Average temperature yesterday: 61 °F

Past Weeks' High & Low Weather Summary

 TemperatureHumidityPressure
High80 °F (Sep 9, 3:00 PM)100% (Sep 7, 3:00 AM)30.09 "Hg (Sep 7, 3:00 AM)
Low54 °F (Sep 8, 6:00 AM)58% (Sep 5, 2:00 PM)29.83 "Hg (Sep 13, 4:00 AM)
Average62 °F92%29.98 "Hg
* Reported Sep 1 8:00 PM — Sep 16 8:00 PM, Fürstenfeld, Weather by CustomWeather, © 2014

Note: Actual official high and low records may vary slightly from our data, if they occured in-between our weather recording intervals... More about our weather records

Advertising

Fürstenfeld weather history for previous 24 hours

 ConditionsComfort  
Time TempWeatherWind HumidityBarometerVisibility
8:00 PM
Sep 16
62 °FFog.2 mph96%30.09 "Hg4 mi
7:00 PM63 °FMild.1 mph96%30.07 "HgN/A
6:00 PM64 °FMild.No wind93%30.06 "HgN/A
5:00 PM66 °FMild.3 mph82%30.06 "HgN/A
4:00 PM67 °FMild.1 mph81%30.06 "HgN/A
3:00 PM67 °FPartly sunny.2 mph74%30.06 "Hg6 mi
2:00 PM69 °FPartly sunny.1 mph72%30.06 "Hg6 mi
1:00 PM67 °FMild.2 mph76%30.08 "HgN/A
12:00 PM66 °FMild.1 mph79%30.08 "HgN/A
11:00 AM63 °FMild.1 mph88%30.09 "HgN/A
10:00 AM61 °FCool.1 mph93%30.09 "HgN/A
9:00 AM61 °FCool.2 mph93%30.07 "HgN/A
8:00 AM60 °FOvercast.2 mph97%30.07 "Hg4 mi
7:00 AM60 °FLight rain. Overcast.2 mph98%30.06 "Hg1 mi
6:00 AM60 °FCool.2 mph98%30.05 "HgN/A
5:00 AM60 °FCool.2 mph98%30.05 "HgN/A
4:00 AM60 °FCool.2 mph98%30.04 "HgN/A
3:00 AM60 °FCool.1 mph98%30.04 "HgN/A
2:00 AM61 °FCool.2 mph98%30.04 "HgN/A
1:00 AM61 °FCool.1 mph98%30.04 "HgN/A
12:00 AM61 °FCool.1 mph98%30.04 "HgN/A
11:00 PM
Sep 15
61 °FCool.2 mph98%30.04 "HgN/A
10:00 PM61 °FCool.1 mph97%30.05 "HgN/A
9:00 PM61 °FCool.2 mph95%30.05 "HgN/A
Weather by CustomWeather, © 2014

See weather overviewHow to use our weather pages